www.pogodaiklimat.ru

Погода и климат >> Архив погоды >> Соломоновы Острова >> Хониара


ПОГОДА в Хониаре

  • Прогноз погоды в Хониаре
  • Монитор погоды в Хониаре

АРХИВ ПОГОДЫ в Хониаре

Время (UTC), дата Ветер
(напр.,м/с)
 
Видим.   Явления Облачность Т
(С)
Тd
(С)
f
(%)
Тe
(С)
Тes
(С)
Комфортность P
(гПа)
Po
(гПа)
Тmin
(С)
Tmax
(С)
R
(мм)
R24
(мм)
S
(см)
12 15.01 Ю 3 25 км мгла 9/6 300 м
[Cu Sc Cs]
+26.8 +22.6 78 +35 +35 очень
душно
1006.5 1007.0 +33.1
15 15.01 Ю 3 25 км мгла 3/1 300 м
[Cu Sc Cs]
+26.0 +24.3 90 +36 +36 очень
душно
1004.7 1005.0
18 15.01 Ю 2 25 км мгла 1/1 300 м
[Cu Sc]
+25.8 +24.9 95 +37 +37 очень
душно
1004.5 1005.0 2
21 15.01 Ю 2 25 км осадки на расстоянии 8/8 600 м
[Cu Sc Ac trans Cs]
+27.3 +24.1 83 +38 +39 очень
душно
1006.2 1006.0
00 16.01 С 1 25 км мгла 3/1 300 м
[Cb cap Cs]
+31.0 +27.0 79 +48 +68 опасность
перегрева
1006.2 1006.0 +25.3 2
03 16.01 С 2 25 км мгла 3/1 300 м
[Cb cap Cs]
+33.0 +26.0 67 +49 +65 опасность
перегрева
1005.0 1005.0
06 16.01 СЗ 1 25 км мгла 3/1 300 м
[Cb cap Cs]
+33.0 +26.0 67 +49 +52 опасность
перегрева
1004.1 1004.0
09 16.01 Ю 1 25 км мгла 4/1 300 м
[Cu med, cong Ac trans Cs]
+27.5 +25.4 88 +40 +40 очень
душно
1007.2 1007.0
12 16.01 Ю 3 25 км мгла 4/4
[Cu Sc Ac trans Cs]
+26.5 +24.3 88 +37 +37 очень
душно
1007.4 1007.0 +33.5
15 16.01 Ю 3 25 км мгла 3/3 300 м
[Cu med, cong]
+26.0 +23.8 88 +36 +36 очень
душно
1006.0 1006.0
18 16.01 Ю 3 25 км мгла 1/1 300 м
[Cu med, cong]
+25.3 +23.8 91 +34 +34 очень
душно
1005.5 1006.0
21 16.01 Ю 3 20 км мгла 4/4
[Cu med, cong Cs]
+27.3 +23.9 82 +38 +40 очень
душно
1007.2 1007.0
00 17.01 С 2 25 км мгла 3/3 600 м
[Cu med, cong Cs]
+32.1 +26.3 72 +49 +62 опасность
перегрева
1007.7 1008.0 +25.1
03 17.01 С 3 25 км осадки на расстоянии 6/4
[Cu med, cong Cs]
+33.4 +26.0 65 +49 +57 опасность
перегрева
1005.4 1005.0
06 17.01 С 1 25 км мгла 9/9
[Cu med, cong Ac trans Cs]
+30.6 +25.4 74 +45 +45 опасность
перегрева
1004.6 1005.0
09 17.01 Ю 3 25 км осадки на расстоянии 8/6
[Cb cap Cs]
+27.2 +25.3 89 +39 +39 очень
душно
1006.8 1007.0
12 17.01 Ю 2 25 км осадки на расстоянии {гроза} 3/3 300 м
[Cb cap Cs]
+26.5 +25.1 92 +38 +38 очень
душно
1007.8 1008.0 +33.7
15 17.01 Ю 3 25 км мгла 4/4
[Cu Sc Ac trans Cs]
+25.5 +24.2 93 +35 +35 очень
душно
1006.1 1006.0
18 17.01 Ю 3 20 км мгла 3/1 300 м
[Cu Sc Cs]
+25.0 +24.3 96 +35 +35 очень
душно
1006.0 1006.0
21 17.01 Ю 3 20 км мгла 3/1 300 м
[Cu Sc Cs]
+25.0 +24.3 96 +35 +38 очень
душно
1006.0 1006.0
00 18.01 С 2 25 км мгла 4/4 600 м
[Cu med, cong]
+32.8 +26.0 68 +49 +60 опасность
перегрева
1007.7 1008.0 +25.1
03 18.01 С 2 25 км осадки на расстоянии 4/1 600 м
[Cb cap]
+33.5 +25.6 63 +48 +63 опасность
перегрева
1006.0 1006.0
06 18.01 С 2 25 км осадки на расстоянии 4/1 600 м
[Cb cap Ci ing]
+33.3 +24.5 60 +46 +49 опасность
перегрева
1005.2 1005.0
09 18.01 С 2 25 км мгла 9/8
[Cu med, cong Ac trans Cs]
+29.8 +25.8 79 +44 +44 опасность
перегрева
1007.8 1008.0
12 18.01 СВ 2 15 км гроза, ливневой дождь 10/8 600 м
[Cb cap]
+26.5 +25.5 94 +39 +39 очень
душно
1009.1 1009.0 +34.0 2
15 18.01 С 1 20 км осадки на расстоянии {гроза, морось} 10/6
[Cu Sc Ac As]
+25.3 +24.8 97 +36 +36 очень
душно
1008.0 1008.0
18 18.01 Ю 3 20 км осадки на расстоянии {ливн. осадки} 10/6
[Cu Sc Ac As]
+25.1 +24.6 97 +35 +35 очень
душно
1007.4 1007.0 1
21 18.01 штиль 0 25 км осадки на расстоянии 9/8
[Cu med, cong Ac trans Cs]
+28.5 +24.6 79 +40 +41 очень
душно
1008.7 1009.0
00 19.01 С 3 30 км 9/8
[Cu Sc Ac trans Cs]
+30.8 +25.4 73 +45 +47 опасность
перегрева
1008.7 1009.0 +25.1 3
03 19.01 С 2 25 км осадки на расстоянии 9/6
[Cb cap Ac trans Cs]
+32.5 +26.8 72 +50 +54 опасность
перегрева
1006.6 1007.0
06 19.01 штиль 0 25 км осадки на расстоянии 9/6
[Cb cap Ac As Cs]
+29.4 +25.6 80 +43 +44 опасность
перегрева
1005.5 1006.0
09 19.01 25 км осадки на расстоянии н/о +27.6 +25.5 88 +40 +40 очень
душно
1007.6 1008.0
12 19.01 Ю 3 25 км осадки на расстоянии 10/9
[Cb cap Ac trans Cs]
+26.9 +25.1 90 +39 +39 очень
душно
1008.0 1008.0 +33.9
15 19.01 Ю 2 25 км мгла 8/8
[Cu Sc Ac trans Cs]
+25.7 +23.9 90 +35 +35 очень
душно
1006.7 1007.0
18 19.01 Ю 2 25 км осадки на расстоянии 10/9
[Cu Sc Ac As Cs]
+25.5 +23.9 91 +35 +35 очень
душно
1005.9 1006.0
21 19.01 Ю 2 25 км осадки на расстоянии 9/8
[Cu Sc Ac trans Cs]
+26.0 +24.6 92 +37 +37 очень
душно
1007.5 1008.0
00 20.01 С 2 25 км осадки на расстоянии 9/4
[Cb cap Ac trans Cs]
+30.5 +25.7 76 +45 +53 опасность
перегрева
1008.0 1008.0 +25.1
03 20.01 С 1 25 км осадки на расстоянии 9/5
[Cb cap Ac trans Cs]
+30.7 +26.0 76 +46 +52 опасность
перегрева
1006.1 1006.0
06 20.01 Ю 3 8000 м гроза, ливневой дождь 10/4 600 м
[Cb cap Ac As]
+27.0 +25.6 92 +40 +40 очень
душно
1005.6 1006.0 2
09 20.01 Ю 2 20 км слаб. морось 10/8
[Cb cap Ac As]
+26.3 +25.8 97 +39 +39 очень
душно
1007.7 1008.0
12 20.01 штиль 0 20 км осадки на расстоянии {морось} 8/6
[Cb cap Ac trans Cs]
+25.5 +24.8 96 +36 +36 очень
душно
1008.4 1008.0 +33.1 6
15 20.01 Ю 1 15 км слаб. морось 10/8
[Cu Sc Ac As]
+25.2 +24.7 97 +35 +35 очень
душно
1006.8 1007.0
18 20.01 Ю 1 20 км мгла 10/9
[Cu Sc Ac As]
+24.8 +24.6 99 +35 +35 очень
душно
1006.4 1006.0 0.8
00 21.01 С 2 25 км осадки на расстоянии 9/9
[Cu Sc Ac As]
+28.0 +25.6 87 +41 +44 опасность
перегрева
1008.3 1008.0 +25.1 8
03 21.01 С 3 25 км осадки на расстоянии 6/5
[Cu Sc Ac trans Cs]
+32.0 +26.2 71 +48 +55 опасность
перегрева
1006.1 1006.0
06 21.01 Ю 2 25 км осадки на расстоянии 8/6
[Cu Sc Ac As]
+28.2 +24.9 82 +40 +41 очень
душно
1006.1 1006.0
09 21.01 Ю 2 25 км осадки на расстоянии 10/10
[Cu Sc Ac As]
+27.0 +25.6 92 +40 +40 очень
душно
1008.2 1008.0
12 21.01 штиль 0 25 км осадки на расстоянии 10/10
[Cu Sc Ac As]
+26.0 +24.6 92 +37 +37 очень
душно
1009.4 1009.0 +33.1
15 21.01 Ю 2 25 км в посл. час морось 9/8
[Cu Sc Ac trans Cs]
+25.4 +24.4 94 +35 +35 очень
душно
1007.6 1008.0
18 21.01 Ю 2 25 км мгла 9/6
[Cu Sc Ac trans Cs]
+25.0 +24.6 98 +35 +35 очень
душно
1006.6 1007.0 0.2
21 21.01 Ю 2 25 км мгла 8/5
[Cu med, cong Ac trans Cs]
+26.6 +24.3 87 +37 +39 очень
душно
1007.9 1008.0
00 22.01 С 2 25 км мгла 8/6
[Cu Sc Ac trans Cs]
+30.0 +25.3 76 +44 +49 опасность
перегрева
1007.3 1007.0 +25.0 0.2
06 22.01 Ю 3 15 км гроза, ливневой дождь 10/9
[Cb cap Ac As]
+25.8 +24.9 95 +37 +37 очень
душно
1006.4 1006.0 0.6
09 22.01 Ю 4 20 км осадки на расстоянии {ливн. осадки} 9/9
[Cu Sc Ac As]
+25.9 +24.7 93 +37 +37 очень
душно
1008.1 1008.0

 

Местоположение метеостанции Хониара (Соломоновы Острова): широта -9.42 долгота 159.97 высота над уровнем моря 55 м.

В архиве по умолчанию представлена погода в Хониаре за последнюю неделю. Архивные данные за месяц целиком и за предыдущие месяцы, начиная с января 2011 года, Вы можете получить, выбрав интересующий диапазон дат из раскрывающегося списка и нажав кнопку "Ввод!".


*Определитесь, кто Вы:
робот инопланетянин человек

Внимание! Время в таблицах - всемирное. Для получения местного времени необходимо прибавить поправку, которая равна 11 ч.

Смотрите также архив погоды в соседних городах и на ближайших метеорологических станциях:

Погода в Хониара аэропорту (Соломоновы Острова) (9 км)
Погода в Ауки (Соломоновы Острова) (110 км)
Погода в Манде (Соломоновы Острова) (322 км)
Погода на Острове Таро (Соломоновы Острова) (495 км)
Погода на Островах Санта-Круз (Соломоновы Острова) (653 км)
Погода на Мисиме (Папуа Новая Гвинея) (794 км)
Погода на Линуа (Вануату) (845 км)
Погода в Соле (Вануату) (961 км)
Погода в Токуа (Папуа Новая Гвинея) (1013 км)
Погода в Санто-Пекоа (Вануату) (1037 км)

Пояснения к столбцам:

Ветер - указаны скорость ветра в м/с - средняя за 10 мин, порывы в срок и между сроками (в фигурных скобках) и направление, откуда дует ветер: С - северный, СВ - северо-восточный, В - восточный, ЮВ - юго-восточный, Ю - южный, ЮЗ - юго-западный, З - западный, СЗ - северо-западный.
Видимость - горизонтальная дальность видимости в метрах или километрах. При видимости от 1 до 10 км при отсутствии осадков обычно наблюдается дымка, при ухудшении видимости до 1 км и менее - туман. В сухую погоду видимость может ухудшаться дымом, пылью или мглою.
Явления - указаны атмосферные явления, наблюдавшиеся в срок или в последний час перед сроком; фигурными скобками обозначены явления, наблюдавшиеся между сроками (за 1-3 часа до срока); квадратными скобками обозначены град или гололедные отложения с указанием их диаметра в мм.
Облачность - указаны через наклонную черту общая и нижняя облачность в баллах и высота нижней границы облаков в метрах; квадратными скобками обозначены формы облаков: Ci - перистые, Cs - перисто-слоистые, Cc - перисто-кучевые, Ac - высококучевые, As - высокослоистые, Sc - слоисто-кучевые, Ns - слоисто-дождевые, Cu - кучевые, Cb - кучево-дождевые. Подробнее классификацию облаков см. в Атласе облаков (PDF).
T - Температура воздуха - температура, измеренная на высоте 2 м над землей.
Td - Температура точки росы - температура, при понижении до которой содержащийся в воздухе водяной пар достигнет насыщения.
f - Относительная влажность воздуха - влажноcть воздуха, измеренная на высоте 2 м над землей.
Te - Эффективная температура - температура, которую ощущает одетый по сезону человек в тени. Характеристика душности погоды. При расчете учитывается влияние влажности воздуха и скорости ветра на теплоощущения человека.
Tes - Эффективная температура на солнце - температура, которую ощущает человек, с поправкой на солнечный нагрев. Характеристика знойности погоды. Зависит от высоты солнца над горизонтом, облачности и скорости ветра. Ночью, в пасмурную погоду, а также при ветре 12 м/с и более поправка равна нулю.
P - Атмосферное давление - приведенное к уровню моря атмосферное давление.
Po - Атмосферное давление - измеренное на уровне метеостанции атмосферное давление.
Tmin - Минимальная температура - минимум температуры воздуха на высоте 2 м над землей.
Tmax - Максимальная температура - максимум температуры воздуха на высоте 2 м над землей.
R - Количество осадков - Количество выпавших осадков за период времени, мм. При наведении курсора мыши на число - период времени, за который выпало указанное количество осадков.
R24 - Количество осадков - Количество выпавших осадков за 24 часа, мм.
S - Снежный покров - Высота снежного покрова, см. При наведении курсора мыши на число - состояние снежного покрова и степень покрытия местности в баллах.